Regional Weather Roundup
Issued by NWS Cleveland, OH

Home | Current Version | Previous Version | Graphics & Text | Print | Product List | Glossary On
Versions: 1 2 3 4 5 6 7 8 9 10 11 12 13 14 15 16 17 18 19 20 21 22 23 24 25 26 27 28 29 30 31 32 33 34 35 36 37 38 39 40 41 42 43 44 45 46 47 48 49 50
739
ASUS41 KCLE 271612
RWRCLE
OHIO REGIONAL WEATHER ROUNDUP
NATIONAL WEATHER SERVICE WILMINGTON, OH
1200 PM EDT THU APR 27 2017

NOTE: "FAIR" INDICATES FEW OR NO CLOUDS BELOW 12,000 FEET WITH NO
SIGNIFICANT WEATHER AND/OR OBSTRUCTIONS TO VISIBILITY.

OHZ001>008-015>018-024>027-034-035-043-044-271700-
   NORTHWEST OHIO

CITY           SKY/WX    TMP DP  RH WIND       PRES   REMARKS
DEFIANCE       PTSUNNY   61  58  90 S13G23    29.53S
FINDLAY        LGT RAIN  64  58  80 SW15G22   29.56R
TOLEDO EXPRESS LGT RAIN  61  59  93 SW10      29.55R
TOLEDO EXEC    LGT RAIN  63  59  87 SW21G31   29.56R
LIMA           PTSUNNY   63  60  90 SW18G26   29.57F
$$

OHZ009>014-019>023-028>033-038-089-271700-
   NORTHEAST OHIO

CITY           SKY/WX    TMP DP  RH WIND       PRES   REMARKS
CLE-HOPKINS    PTSUNNY   79  56  45 S21G29    29.59F
CLE-LAKEFRONT  FAIR      79  56  45 S20G31    29.57S
CUY CO. ARPT   PTSUNNY   79  61  53 S23G29    29.61S
LORAIN-ELYRIA  PTSUNNY   76  55  48 S17G26    29.57F
ASHTABULA      FAIR      78  56  46 SW22      29.64R
AKRON-CANTON   CLOUDY    78  55  44 S16G29    29.63F
WOOSTER        FAIR      75  55  49 S21G31    29.60F
MANSFIELD      PTSUNNY   75  55  49 S22G35    29.58F
YOUNGSTOWN     CLOUDY    78  56  46 S14G24    29.66R
$$

OHZ042-051>053-060>062-070>072-077>081-271700-
  SOUTHWEST OHIO

CITY           SKY/WX    TMP DP  RH WIND       PRES   REMARKS
CINC-COVINGTON PTSUNNY   67  61  81 SW17G24   29.63S
CINC-LUNKEN    PTSUNNY   67  63  87 SW15      29.64R
HAMILTON       PTSUNNY   68  62  81 SW12G22   29.63S
DAYTON         LGT RAIN  64  59  83 SW17G28   29.62R
WRIGHT-PAT AFB PTSUNNY   64  61  88 SW17      29.62R
DAYTON GENERAL LGT RAIN  62  59  90 SW10      29.62R
WILMINGTON     LGT RAIN  64  59  83 W22G28    29.63R
$$

OHZ036-037-039>041-045>050-054>059-063>069-073>076-082>088-271700-
  CENTRAL AND SOUTHEAST OHIO

CITY           SKY/WX    TMP DP  RH WIND       PRES   REMARKS
COLUMBUS       CLOUDY    73  56  54 S17G23    29.61R
OSU AIRPORT    CLOUDY    72  57  59 S16G25    29.59R
BOLTON FIELD   CLOUDY    72  55  56 S26G33    29.61R
RICKENBACK AFB CLOUDY    73  57  57 S16       29.61R
NEWARK         PTSUNNY   76  54  46 S12G31    29.61S
MARION         CLOUDY    74  54  49 SW20G39   29.57S
LANCASTER      PTSUNNY   75  55  49 S16G31    29.63R
ZANESVILLE     FAIR      77  55  46 S23G31    29.64F
NEW PHILLY     FAIR      78  55  44 S10       29.62F
$$




USA.gov is the U.S. government's official web portal to all federal, state and local government web resources and services.